Regional Weather Roundup
Issued by NWS Charleston, SC

Current Version | Previous Version | Text Only | Print | Product List | Glossary Off
Versions: 1 2 3 4 5 6 7 8 9 10 11 12 13 14 15 16 17 18 19 20 21 22 23 24 25 26 27 28 29 30 31 32 33 34 35 36 37 38 39 40 41 42 43 44 45 46 47 48 49 50
637 ASUS42 KCHS 141028 RWRCHS REGIONAL WEATHER ROUNDUP NATIONAL WEATHER SERVICE CHARLESTON SC 500 AM EST SUN FEB 14 2016 NOTE: "FAIR" INDICATES FEW OR NO CLOUDS BELOW 12,000 FEET WITH NO SIGNIFICANT WEATHER AND/OR OBSTRUCTIONS TO VISIBILITY. NOT ALL STATIONS ARE QUALITY CONTROLLED BY THE NATIONAL WEATHER SERVICE. USE DATA WITH CAUTION...ESPECIALLY DEWPOINT OBSERVATIONS. SCZ027-030-031-034>040-042>050-141100- ...SOUTHEAST SOUTH CAROLINA... CITY SKY/WX TMP DP RH WIND PRES REMARKS N CHARLESTON CLEAR 29 7 39 NE10 30.42R WCI 20 WATERFRONT PRK N/A 33 20 58 NE13 30.25R WCI 24 MOUNT PLEASANT FAIR 30 10 43 N8 30.43R WCI 23 JOHNS ISLAND FAIR 30 10 43 N12 30.42R WCI 21 PINOPOLIS N/A 30 14 51 NE15 30.35R WCI 19 MONCKS CORNER FAIR 25 5 42 NE8 30.44R WCI 16 SUMMERVILLE FAIR 30 14 51 NE3 30.44R BEAUFORT MCAS CLEAR 31 12 45 NE14 30.39S WCI 21 BEAUFORT ARPT FAIR 32 18 55 NE16G23 30.39R WCI 21 HILTON HEAD IS CLEAR 34 21 60 N13 30.39R WCI 25 WALTERBORO SUNNY 32 10 40 NE6 30.44R WCI 26 ALLENDALE FAIR 30 10 43 CALM 30.43R ...SOUTHERN MIDLANDS AND PEE DEE... CITY SKY/WX TMP DP RH WIND PRES REMARKS GEORGETOWN FAIR 27 9 46 N8 30.46R WCI 18 KINGSTREE FAIR 27 3 36 N3 30.47R ORANGEBURG CLOUDY 28 7 41 NE6 30.44R WCI 22 BARNWELL FAIR 30 10 43 NE8 30.44R WCI 23 AIKEN FAIR 27 5 39 NE6 30.45R WCI 20 MANNING FAIR 27 5 39 N7 30.46R WCI 19 COLUMBIA CLEAR 28 3 34 E8 30.45R WCI 20 SUMTER CLEAR 23 8 52 NE7 30.43R WCI 14 FLORENCE CLEAR 22 7 52 NE7 30.47R WCI 13 MYRTLE BEACH CLEAR 27 3 36 NE10 30.49R WCI 17 N MYRTLE BEACH CLEAR 25 6 44 N8 30.46R WCI 16 $$ GAZ063-065-086>088-099>101-113>116-118-119-134>141-150-141100- ...SOUTHEAST GEORGIA... CITY SKY/WX TMP DP RH WIND PRES REMARKS SAVANNAH ARPT PTCLDY 34 18 52 NE15 30.37R WCI 24 HUNTER AAF CLEAR 36 24 63 NE10 30.33R WCI 28 FORT STEWART CLEAR 33 24 69 N5 30.33R WCI 29 STATESBORO CLEAR 35 11 37 NE7 30.39R WCI 29 SYLVANIA MOSUNNY 32 18 57 E8 30.40R WCI 25 CLAXTON FAIR 33 22 63 N9 30.37R WCI 26 ...CSRA...CENTRAL AND FAR SOUTHEAST GEORGIA... CITY SKY/WX TMP DP RH WIND PRES REMARKS THOMSON PTCLDY 30 14 51 E7 30.44F WCI 23 AUGUSTA-BUSH CLEAR 27 9 46 E6 30.44R WCI 20 AUGUSTA-DANIEL CLEAR 30 5 34 E8 30.43R WCI 22 SWAINSBORO FAIR 32 19 59 E8 30.37S WCI 25 VIDALIA CLEAR 32 21 64 NE8 30.35S WCI 25 EASTMAN FAIR 29 20 67 CALM 30.37S HAZLEHURST FAIR 33 22 64 N5 30.33S WCI 28 ALMA CLEAR 32 20 61 N5 30.33R WCI 27 WAYCROSS CLEAR 35 26 71 NE3 30.33R JESUP FAIR 37 28 70 NE6 30.33R WCI 33 BAXLEY FAIR 34 23 64 NE5 30.33R WCI 30 BRUNSWICK CLEAR 34 32 93 CALM 30.33R SAINT SIMONS CLEAR 36 33 89 N5 30.30F WCI 32 $$ SCZ027-028-034-036>038-045-046-048>050-GAZ119-141-141100- ...LAKE AND SUPPLEMENTAL COASTAL OBSERVATIONS... STATION/POSITION TIME TEMP WIND PRES WAVE SWELL AIR SEA DIR/SP/G HT/PER HT/PER/DIR (UTC) (F) (DEG/KT/KT) (MB) (FT/S) (FT/S/D) WINYAH BAY 0945 28 20/ 8 1029.0R LAKE MURRAY 0900 27 50/ 2/ 7 1029.8R ACE BASIN NERRS 0945 30 30/ 4 1029.0R FORT PULASKI 0900 40 50 60/ 11/ 19 1027.7R SAPELO ISLAND 1000 38 10/ 6 1026.0S $$ ANZ835-935-AMZ111-154-330-350-352-354-370-450-454-472-141100- ...C-MAN AND BUOY OBSERVATIONS... STATION/POSITION TIME TEMP WIND PRES WAVE SWELL AIR SEA DIR/SP/G HT/PER HT/PER/DIR (UTC) (F) (DEG/KT/KT) (MB) (FT/S) (FT/S/D) BUOY 41004 0950 43 64 30/ 17/ 23 1028.4R 5/ 6 2/ 8 BUOY 41008 0950 49 53 60/ 10/ 12 1026.5F 2/ 8 2/ 80/ 8 FOLLY BEACH CMAN 1000 33 20/ 17/ 21 1029.7R CAPERS NEARSHORE 0908 36 30/ 21/ 27 1029.0R FRIPP NEARSHORE 0900 40 40/ 21/ 25 1026.8R STATION/POSITION TIME TEMP WIND PRES WAVE SWELL AIR SEA DIR/SP/G HT/PER HT/PER/DIR (UTC) (F) (DEG/KT/KT) (MB) (FT/S) (FT/S/D) 5E ST. MARYS GA 0921 55 N/A 2/ 6 FRYING PAN BUOY 1000 35 60 360/ 19/ 23 1030.3R BUOY 41025 0950 30 72 360/ 23/ 29 1029.8R 6/ 8 2/ 80/10 CAPE LOOKOUT NC NOT AVBL BUOY 41002 0950 48 67 350/ 17/ 21 N/A 9/ 9 7/ 10/ 9 BUOY 41010 0920 61 72 1023.0R ST AUGUSTINE FL 1000 53 56 30/ 13/ 15 1025.5F $$

USA.gov is the U.S. government's official web portal to all federal, state and local government web resources and services.